Regional Weather Roundup
Issued by NWS Jackson, KY

Home | Current Version | Previous Version | Graphics & Text | Print | Product List | Glossary On
Versions: 1 2 3 4 5 6 7 8 9 10 11 12 13 14 15 16 17 18 19 20 21 22 23 24 25 26 27
000
ASUS43 KJKL 241410
RWRJKL

EAST KENTUCKY HOURLY WEATHER ROUNDUP
NATIONAL WEATHER SERVICE JACKSON KY
900 AM EST FRI FEB 24 2017

NOTE: "FAIR" INDICATES FEW OR NO CLOUDS BELOW 12,000 FEET WITH
NO SIGNIFICANT WEATHER AND/OR OBSTRUCTIONS TO VISIBILITY.

* THESE REPORTS ARE NOT UNDER NWS QUALITY CONTROL AND MAY NOT
  REPORT WEATHER SUCH AS PRECIPITATION AND FOG.

KYZ079-080-083-085-087-088-110-112-115-119-120-241500
...EASTERN KENTUCKY...

CITY           SKY/WX    TMP DP  RH WIND       PRES   REMARKS
JACKSON        SUNNY     62  50  64 S3        29.83R
LONDON         SUNNY     64  48  56 S8        29.82R
SOMERSET*      SUNNY     63  50  63 S10G16    29.83R
MONTICELLO*    MOSUNNY   66  52  60 S12G17    29.82R
WILLIAMSBURG*  SUNNY     64  50  59 S7        29.83R
MIDDLESBORO*   SUNNY     61  51  70 CALM      29.86S
HARLAN APT*    MOSUNNY   61  48  63 NE3       29.86F
PIKE CO APT*     N/A     62  48  60 S7        29.84S
BIG SANDY APT* SUNNY     64  49  58 S8        29.83S
MOREHEAD APT*  SUNNY     63  50  63 S8        29.82R
ASHLAND*       SUNNY     57  54  88 E3        29.79S
$$

KYZ035-036-041-042-044-050-067-078-099-241500
...CENTRAL KENTUCKY...

CITY           SKY/WX    TMP DP  RH WIND       PRES   REMARKS
MT STERLING*   SUNNY     63  52  67 SW9G17    29.81R
FLEMING/MASON* PTSUNNY   62  52  70 S13       29.78S
DANVILLE*      MOSUNNY   61  52  72 S10       29.78S
LEXINGTON      MOSUNNY   63  51  65 S15G22    29.76R
FRANKFORT      MOSUNNY   63  51  65 S10       29.72S
LOUISVILLE     PTSUNNY   66  54  65 S13       29.70R
LEBANON*         N/A     64  54  68 S15G25    29.75R
GLASGOW*       SUNNY     64  55  72 S9        29.75S
BOWLING GREEN  SUNNY     66  57  72 S14       29.74R
$$

KYZ091>093-OHZ055-061-077-WVZ005-015-034-035-042-241500
...SOUTHERN OHIO/WEST VIRGINIA...

CITY           SKY/WX    TMP DP  RH WIND       PRES   REMARKS
COVINGTON      MOSUNNY   64  54  69 S18G25    29.70S
COLUMBUS       PTSUNNY   63  53  70 S13       29.73S
DAYTON         MOSUNNY   62  53  72 S18       29.70R
WILMINGTON     MOSUNNY   61  52  72 S17       29.72S
HUNTINGTON     SUNNY     61  52  72 SE5       29.81R
CHARLESTON     SUNNY     54  50  86 CALM      29.84R
PINEVILLE*     SUNNY     48  46  91 MISG      29.94S
BECKLEY        SUNNY     58  47  66 SE8       29.91R
BLUEFIELD      SUNNY     58  44  60 CALM      29.94R
LOGAN CO APT*    N/A     63  48  59 CALM      29.86S
$$

VAZ002-007-008-TNZ017-027-036-066-071-241500
...SOUTHWEST VIRGINIA/EAST TENNESSEE...

CITY           SKY/WX    TMP DP  RH WIND       PRES   REMARKS
WISE*          MOSUNNY   61  45  55 CALM      29.91S
JONESVILLE*      N/A     55  50  82 CALM      29.90S
ABINGDON*      SUNNY     59  50  73 E6        29.92S
BRISTOL        MOSUNNY   54  49  83 CALM      29.91R
MORRISTOWN*    SUNNY     59  52  77 CALM      29.87S
SEVIERVILLE*   SUNNY     50  48  93 CALM      29.88S
KNOXVILLE      MOSUNNY   56  52  86 CALM      29.87R
LAFOLLETTE*    SUNNY     64  52  63 VRB6      29.88R
OAK RIDGE      SUNNY     61  51  70 CALM      29.88S
CROSSVILLE     SUNNY     61  51  70 S9        29.87R
NASHVILLE      MOSUNNY   67  56  67 S9        29.77R
$$

...KEY TO REMARKS...
VSB - VISIBILITY IN MILES
WCI - WIND CHILL INDEX
HX  - HEAT INDEX

$$




USA.gov is the U.S. government's official web portal to all federal, state and local government web resources and services.